'Time (yyyy-mm-dd hh:mm:ss.ss)','Frequency (Hz)','Real Power (kW)','Reactive Power (kVAr)','State of Charge (%)','DC Voltage (V)','DC Current (A)','Av. AC Voltage (V)','Av. AC Current (A)','Battery Ambient Temperature (deg.C)'
'2018-05-25 11:49:59.99',49.976,1,2,50.6,601.2,12,354,78,23.9
'2018-05-25 11:50:01.00',49.975,1,0,50.6,601.2,12,354,78,23.9
'2018-05-25 11:50:02.00',49.974,1,1,50.6,601.2,12,354,79,23.9
'2018-05-25 11:50:03.00',49.974,2,-1,50.6,601.2,12,354,79,23.9
'2018-05-25 11:50:04.00',49.974,0,-2,50.6,601.2,12,354,79,23.9
'2018-05-25 11:50:05.00',49.976,-2,-1,50.6,601.2,12,354,79,23.9
'2018-05-25 11:50:06.00',49.976,-2,0,50.6,601.2,12,355,79,23.9
'2018-05-25 11:50:07.00',49.977,-3,-1,50.5,601.2,12,355,79,23.9
'2018-05-25 11:50:08.00',49.977,1,2,50.5,601.2,12,355,76,23.9
'2018-05-25 11:50:09.00',49.975,2,-1,50.5,601.2,12,355,76,23.9
'2018-05-25 11:50:10.00',49.974,2,-3,50.5,601.2,12,355,76,23.9
'2018-05-25 11:50:11.00',49.974,2,-4,50.5,601.2,12,355,76,23.9
'2018-05-25 11:50:12.00',49.973,2,-1,50.5,601.2,12,355,76,23.9
'2018-05-25 11:50:12.99',49.971,-1,0,50.5,601.2,12,355,76,23.9
'2018-05-25 11:50:14.00',49.970,-2,3,50.5,601.2,12,355,76,23.9
'2018-05-25 11:50:15.00',49.969,1,1,50.5,601.2,12,355,79,23.9
'2018-05-25 11:50:16.00',49.969,1,-3,50.5,601.2,12,355,79,23.9
'2018-05-25 11:50:17.00',49.969,-2,-3,50.5,601.2,12,355,79,23.9
'2018-05-25 11:50:18.00',49.968,-3,1,50.5,601.2,12,355,79,23.9
'2018-05-25 11:50:19.00',49.973,-3,2,50.5,601.2,12,355,79,23.9
'2018-05-25 11:50:20.00',49.974,-2,-1,50.5,601.2,12,355,79,23.9
'2018-05-25 11:50:21.00',49.977,2,2,50.5,601.2,12,355,78,23.9
'2018-05-25 11:50:22.00',49.978,1,-2,50.5,601.2,12,355,78,23.9
'2018-05-25 11:50:23.00',49.978,-2,-3,50.5,601.2,12,355,78,23.9
'2018-05-25 11:50:23.99',49.979,-1,2,50.5,601.2,12,355,78,23.9
'2018-05-25 11:50:25.00',49.979,-2,1,50.5,601.2,12,355,78,23.9
'2018-05-25 11:50:25.99',49.979,0,1,50.5,601.2,12,355,78,23.9
'2018-05-25 11:50:27.00',49.977,1,1,50.5,601.2,12,355,78,23.9
'2018-05-25 11:50:28.00',49.977,2,-3,50.5,601.2,12,355,78,23.9
'2018-05-25 11:50:29.00',49.978,2,-1,50.5,601.2,12,355,78,23.9
'2018-05-25 11:50:30.00',49.976,2,0,50.5,601.2,12,355,78,23.9
'2018-05-25 11:50:31.00',49.977,1,-3,50.5,601.2,12,354,78,23.9
'2018-05-25 11:50:32.00',49.978,1,3,50.5,601.2,12,354,78,23.9
'2018-05-25 11:50:33.00',49.979,-2,0,50.5,601.2,12,354,78,23.9
'2018-05-25 11:50:34.00',49.980,1,3,50.5,601.2,12,354,79,23.9
'2018-05-25 11:50:35.00',49.979,2,3,50.5,601.2,12,354,79,23.9
'2018-05-25 11:50:36.00',49.978,1,-3,50.5,601.2,12,354,79,23.9
'2018-05-25 11:50:36.99',49.976,0,-3,50.5,601.2,12,354,79,23.9
'2018-05-25 11:50:38.00',49.975,1,0,50.5,601.2,12,354,79,23.9
'2018-05-25 11:50:39.00',49.975,-2,-1,50.5,601.2,12,354,79,23.9
'2018-05-25 11:50:40.00',49.974,-2,0,50.5,601.2,12,354,80,23.9
'2018-05-25 11:50:41.00',49.974,1,1,50.5,601.2,12,354,80,23.9
'2018-05-25 11:50:42.00',49.974,2,-3,50.5,601.2,12,354,80,23.9
'2018-05-25 11:50:43.00',49.974,2,-3,50.5,601.2,12,354,80,23.9
'2018-05-25 11:50:44.00',49.974,3,-3,50.5,601.2,12,354,80,23.9
'2018-05-25 11:50:45.00',49.976,-2,1,50.5,601.2,12,354,80,23.9
'2018-05-25 11:50:46.00',49.978,0,0,50.5,601.2,11,354,80,23.9
'2018-05-25 11:50:47.00',49.981,0,1,50.5,601.2,11,354,82,23.9
'2018-05-25 11:50:48.00',49.984,-2,1,50.5,601.2,11,354,82,23.9
'2018-05-25 11:50:49.00',49.986,2,-1,50.5,601.2,11,354,82,23.9
'2018-05-25 11:50:49.99',49.989,2,-3,50.5,601.2,12,354,82,23.9
'2018-05-25 11:50:51.00',49.989,2,-1,50.5,601.2,12,355,82,23.9
'2018-05-25 11:50:51.99',49.988,2,1,50.5,601.2,12,355,82,23.9
'2018-05-25 11:50:53.00',49.986,2,-1,50.5,601.2,12,355,82,23.9
'2018-05-25 11:50:54.00',49.985,-1,-3,50.5,601.2,12,355,82,23.9
'2018-05-25 11:50:55.00',49.983,-2,0,50.5,601.2,12,355,82,23.9
'2018-05-25 11:50:56.00',49.982,-2,2,50.5,601.2,12,355,82,23.9
'2018-05-25 11:50:57.00',49.980,-2,1,50.5,601.2,12,355,82,23.9
'2018-05-25 11:50:58.00',49.981,-2,0,50.5,601.2,12,355,82,23.9
'2018-05-25 11:50:59.00',49.981,-3,2,50.5,601.2,11,355,82,23.9
'2018-05-25 11:51:00.00',49.985,-2,3,50.5,601.2,11,355,82,23.9
'2018-05-25 11:51:01.00',49.989,-2,1,50.5,601.2,12,355,81,23.9
'2018-05-25 11:51:02.00',49.990,-2,-3,50.5,601.2,11,355,81,23.9
'2018-05-25 11:51:02.99',49.994,0,2,50.5,601.2,11,355,81,23.9
'2018-05-25 11:51:04.00',49.998,-3,-29,50.5,601.2,11,355,81,23.9
'2018-05-25 11:51:05.00',50.001,-1,30,50.5,601.2,11,355,81,23.9
'2018-05-25 11:51:06.00',50.001,0,-3,50.5,601.2,11,355,81,23.9
'2018-05-25 11:51:07.00',50.002,-1,-1,50.5,601.2,11,355,82,23.9
'2018-05-25 11:51:08.00',50.003,-1,0,50.5,601.2,11,355,82,23.9
'2018-05-25 11:51:09.00',50.002,-2,0,50.5,601.2,11,355,82,23.9
'2018-05-25 11:51:10.00',50.002,0,-1,50.5,601.2,11,355,82,23.9
'2018-05-25 11:51:11.00',50.002,-2,3,50.5,601.2,11,355,82,23.9
'2018-05-25 11:51:12.00',50.000,1,3,50.5,601.2,11,355,82,23.9
'2018-05-25 11:51:13.00',49.999,2,31,50.5,601.2,11,355,82,23.9
'2018-05-25 11:51:14.00',49.997,2,2,50.5,601.2,12,355,82,23.9
'2018-05-25 11:51:15.00',49.996,-2,1,50.5,601.2,12,355,82,23.9
'2018-05-25 11:51:15.99',49.993,1,-1,50.5,601.2,12,355,82,23.9
'2018-05-25 11:51:17.00',49.990,1,-1,50.5,601.2,12,354,82,23.9
'2018-05-25 11:51:17.99',49.988,0,-1,50.5,601.2,12,354,82,23.9
'2018-05-25 11:51:19.00',49.984,2,-2,50.5,601.2,12,354,82,23.9
'2018-05-25 11:51:20.00',49.981,0,-3,50.5,601.2,12,354,80,23.9
'2018-05-25 11:51:21.00',49.980,0,0,50.5,601.2,12,354,80,23.9
'2018-05-25 11:51:22.00',49.979,0,3,50.5,601.2,12,354,80,23.9
'2018-05-25 11:51:23.00',49.978,1,0,50.5,601.2,12,354,80,23.9
'2018-05-25 11:51:24.00',49.979,0,2,50.5,601.1,12,355,80,23.9
'2018-05-25 11:51:25.00',49.981,1,1,50.5,601.1,12,355,80,23.9
'2018-05-25 11:51:26.00',49.983,3,-2,50.5,601.1,12,355,80,23.9
'2018-05-25 11:51:27.00',49.984,2,-3,50.5,601.1,12,355,79,23.9
'2018-05-25 11:51:28.00',49.986,2,-4,50.5,601.1,12,355,79,23.9
'2018-05-25 11:51:28.99',49.990,3,-3,50.5,601.1,12,355,79,23.9
'2018-05-25 11:51:30.00',49.991,0,-3,50.5,601.1,12,355,79,23.9
'2018-05-25 11:51:31.00',49.993,0,1,50.5,601.1,12,355,79,23.9
'2018-05-25 11:51:32.00',49.994,2,-3,50.5,601.1,12,355,79,23.9
'2018-05-25 11:51:33.00',49.994,2,3,50.5,601.1,12,355,79,23.9
'2018-05-25 11:51:34.00',49.990,2,0,50.5,601.1,12,355,79,23.9
'2018-05-25 11:51:35.00',49.987,0,1,50.5,601.1,12,355,79,23.9
'2018-05-25 11:51:36.00',49.984,0,2,50.5,601.1,12,355,79,23.9
'2018-05-25 11:51:37.00',49.983,0,1,50.5,601.1,12,355,79,23.9
'2018-05-25 11:51:38.00',49.982,0,2,50.5,601.1,12,355,79,23.9
'2018-05-25 11:51:39.00',49.980,2,-3,50.5,601.1,12,355,79,23.9
'2018-05-25 11:51:40.00',49.979,2,-1,50.5,601.1,12,355,79,23.9
'2018-05-25 11:51:41.00',49.978,0,-2,50.5,601.1,12,355,79,23.9
'2018-05-25 11:51:41.99',49.977,-2,2,50.5,601.1,12,355,79,23.9
'2018-05-25 11:51:43.00',49.976,0,2,50.5,601.1,12,355,79,23.9
'2018-05-25 11:51:43.99',49.976,0,0,50.5,601.1,12,355,79,23.9
'2018-05-25 11:51:45.00',49.974,2,-2,50.5,601.1,12,355,79,23.9
'2018-05-25 11:51:46.00',49.972,1,-4,50.5,601.1,12,355,79,23.9
'2018-05-25 11:51:47.00',49.968,2,-1,50.5,601.1,12,355,81,23.9
'2018-05-25 11:51:48.00',49.968,0,2,50.5,601.1,12,355,81,23.9
'2018-05-25 11:51:49.00',49.967,0,2,50.5,601.1,12,355,81,23.9
'2018-05-25 11:51:50.00',49.966,2,1,50.5,601.1,12,355,81,23.9
'2018-05-25 11:51:51.00',49.966,1,-3,50.5,601.1,12,355,81,23.9
'2018-05-25 11:51:52.00',49.962,2,-1,50.5,601.1,12,355,81,23.9
'2018-05-25 11:51:52.99',49.962,-1,1,50.5,601.1,12,355,84,23.9
'2018-05-25 11:51:54.00',49.961,-2,3,50.5,601.1,12,355,84,23.9
'2018-05-25 11:51:54.99',49.961,2,-1,50.5,601.1,12,355,84,23.9
'2018-05-25 11:51:56.00',49.960,-1,-1,50.5,601.1,12,355,84,23.9
'2018-05-25 11:51:57.00',49.960,-3,0,50.5,601.1,12,355,84,23.9
'2018-05-25 11:51:58.00',49.960,-2,3,50.5,601.1,12,355,84,23.9
'2018-05-25 11:51:59.00',49.961,0,-1,50.5,601.1,12,355,83,23.9
'2018-05-25 11:52:00.00',49.965,1,-3,50.5,601.1,12,355,83,23.9
'2018-05-25 11:52:01.00',49.965,1,-4,50.5,601.1,11,355,83,23.9
'2018-05-25 11:52:02.00',49.965,-2,1,50.5,601.1,11,355,83,23.9
'2018-05-25 11:52:03.00',49.969,-2,1,50.5,601.1,11,355,83,23.9
'2018-05-25 11:52:04.00',49.970,0,-4,50.5,601.1,11,355,83,23.9
'2018-05-25 11:52:05.00',49.974,0,-4,50.5,601.1,11,355,83,23.9
'2018-05-25 11:52:05.99',49.978,0,-3,50.5,601.1,11,355,82,23.9
'2018-05-25 11:52:07.00',49.982,2,-3,50.5,601.1,11,355,82,23.9
'2018-05-25 11:52:08.00',49.986,0,0,50.5,601.1,11,355,82,23.9
'2018-05-25 11:52:09.00',49.989,0,-1,50.5,601.1,11,355,82,23.9
'2018-05-25 11:52:10.00',49.990,0,2,50.5,601.1,11,355,82,23.9
'2018-05-25 11:52:11.00',49.990,-3,0,50.5,601.1,11,355,82,23.9
'2018-05-25 11:52:12.00',49.989,0,1,50.5,601.1,11,355,72,23.9
'2018-05-25 11:52:13.00',49.987,0,-1,50.5,601.1,11,355,72,23.9
'2018-05-25 11:52:14.00',49.984,0,2,50.5,601.1,11,355,72,23.9
'2018-05-25 11:52:15.00',49.981,-2,-1,50.5,601.1,11,355,72,23.9
'2018-05-25 11:52:16.00',49.978,1,-2,50.5,601.1,11,355,72,23.9
'2018-05-25 11:52:17.00',49.976,0,-3,50.5,601.1,11,355,72,23.9
'2018-05-25 11:52:18.00',49.975,-2,-2,50.5,601.1,11,355,71,23.9
'2018-05-25 11:52:18.99',49.974,-2,1,50.5,601.1,11,355,71,23.9
'2018-05-25 11:52:20.00',49.973,-2,1,50.5,601.1,11,355,71,23.9
'2018-05-25 11:52:20.99',49.972,1,-3,50.5,601.1,11,355,71,23.9
'2018-05-25 11:52:22.00',49.972,0,-4,50.5,601.1,11,355,71,23.9
'2018-05-25 11:52:23.00',49.972,2,-3,50.5,601.1,11,355,71,23.9
'2018-05-25 11:52:24.00',49.972,2,-1,50.5,601.1,11,355,67,23.9
'2018-05-25 11:52:25.00',49.972,1,0,50.5,601.1,11,355,67,23.9
'2018-05-25 11:52:26.00',49.973,0,1,50.5,601.1,11,355,67,23.9
'2018-05-25 11:52:27.00',49.975,0,1,50.5,601.1,12,355,67,23.9
'2018-05-25 11:52:28.00',49.976,2,-3,50.5,601.1,12,355,67,23.9
'2018-05-25 11:52:29.00',49.977,1,-3,50.5,601.1,12,355,67,23.9
'2018-05-25 11:52:30.00',49.980,1,-4,50.5,601.1,12,355,67,23.9
'2018-05-25 11:52:31.00',49.985,-2,-1,50.5,601.1,12,355,67,23.9
'2018-05-25 11:52:31.99',49.986,2,-1,50.5,601.1,12,355,67,23.9
'2018-05-25 11:52:33.00',49.986,2,1,50.5,601.1,12,355,67,23.9
'2018-05-25 11:52:34.00',49.987,0,2,50.5,601.1,12,355,67,23.9
'2018-05-25 11:52:35.00',49.988,0,1,50.5,601.1,12,355,67,23.9
'2018-05-25 11:52:36.00',49.991,1,3,50.5,601.1,12,355,72,23.9
'2018-05-25 11:52:37.00',49.993,2,3,50.5,601.1,12,355,72,23.9
'2018-05-25 11:52:38.00',49.996,1,1,50.5,601.1,12,355,72,23.9
'2018-05-25 11:52:39.00',50.000,1,0,50.5,601.1,11,355,72,23.9
'2018-05-25 11:52:40.00',50.004,0,2,50.5,601.1,11,355,72,23.9
'2018-05-25 11:52:41.00',50.007,1,0,50.5,601.1,11,355,72,23.9
'2018-05-25 11:52:42.00',50.010,-1,2,50.5,601.1,11,355,76,23.9
'2018-05-25 11:52:43.00',50.014,0,2,50.5,601.1,11,355,76,23.9
'2018-05-25 11:52:44.00',50.019,2,-2,50.4,601.1,11,355,76,23.9
'2018-05-25 11:52:44.99',50.021,3,-1,50.4,601.1,11,355,76,23.9
'2018-05-25 11:52:46.00',50.025,2,-3,50.4,601.1,11,355,76,23.9
'2018-05-25 11:52:46.99',50.026,2,-4,50.4,601.1,11,355,76,23.9
'2018-05-25 11:52:48.00',50.025,0,1,50.4,601.1,11,355,76,23.9
'2018-05-25 11:52:49.00',50.026,0,3,50.4,601.1,11,355,73,23.9
'2018-05-25 11:52:50.00',50.026,0,-3,50.4,601.1,11,355,73,23.9
'2018-05-25 11:52:51.00',50.025,2,0,50.4,601.1,11,355,73,23.9
'2018-05-25 11:52:52.00',50.024,2,-3,50.4,601.1,11,355,73,23.9
'2018-05-25 11:52:53.00',50.024,2,-3,50.4,601.1,11,355,73,23.9
'2018-05-25 11:52:54.00',50.023,2,-4,50.4,601.1,11,355,73,23.9
'2018-05-25 11:52:55.00',50.023,2,-4,50.4,601.1,11,355,72,23.9
'2018-05-25 11:52:56.00',50.023,1,-2,50.4,601.1,11,355,72,23.9
'2018-05-25 11:52:57.00',50.025,-2,1,50.4,601.1,11,355,72,23.9
'2018-05-25 11:52:57.99',50.026,1,-1,50.4,601.1,11,355,72,23.9
'2018-05-25 11:52:59.00',50.026,2,-1,50.4,601.1,11,355,72,23.9
'2018-05-25 11:53:00.00',50.026,2,-4,50.4,601.1,11,355,72,23.9
'2018-05-25 11:53:01.00',50.026,-2,-2,50.4,601.1,10,355,72,23.9
'2018-05-25 11:53:02.00',50.030,-2,1,50.4,601.1,10,355,72,23.9
'2018-05-25 11:53:03.00',50.031,-1,1,50.4,601.1,10,355,72,23.9
'2018-05-25 11:53:04.00',50.030,-2,-1,50.4,601.1,10,355,72,23.9
'2018-05-25 11:53:05.00',50.029,-1,-3,50.4,601.1,10,356,72,23.9
'2018-05-25 11:53:06.00',50.027,-2,-1,50.4,601.1,10,356,72,23.9
'2018-05-25 11:53:07.00',50.027,-2,1,50.4,601.1,10,356,72,23.9
'2018-05-25 11:53:08.00',50.026,-2,1,50.4,601.1,10,356,72,23.9
'2018-05-25 11:53:09.00',50.026,-2,1,50.4,601.1,11,356,72,23.9
'2018-05-25 11:53:10.00',50.027,0,0,50.4,601.1,11,356,72,23.9
'2018-05-25 11:53:10.99',50.028,1,-3,50.4,601.1,11,356,72,23.9
'2018-05-25 11:53:12.00',50.029,0,-3,50.4,601.1,11,356,72,23.9
'2018-05-25 11:53:12.99',50.029,1,-1,50.4,601.1,11,356,72,23.9
'2018-05-25 11:53:14.00',50.031,-2,1,50.4,601.1,11,356,72,23.9
'2018-05-25 11:53:15.00',50.034,524,-6,50.4,601.1,11,356,514,23.9
'2018-05-25 11:53:16.00',50.037,2015,-2,50.4,601.1,84,356,514,23.9
'2018-05-25 11:53:17.00',50.036,2014,-3,50.4,600.2,84,356,514,23.9
'2018-05-25 11:53:18.00',50.039,2014,-1,50.2,599.1,84,356,514,23.9
'2018-05-25 11:53:19.00',50.041,2018,3,50.1,599.1,84,360,514,23.9
'2018-05-25 11:53:20.00',50.042,2019,1,50.0,599.1,427,360,514,23.9
'2018-05-25 11:53:21.00',50.044,2018,-2,50.0,597.8,427,360,514,23.9
'2018-05-25 11:53:22.00',50.047,2016,-1,50.0,597.8,769,360,3206,23.9
'2018-05-25 11:53:23.00',50.047,2016,-3,49.9,597.8,1111,360,3206,23.9
'2018-05-25 11:53:23.99',50.048,2014,-4,49.9,595.0,1465,360,3206,23.9
'2018-05-25 11:53:25.00',50.047,2013,0,49.9,593.4,1465,360,3206,23.9
'2018-05-25 11:53:26.00',50.045,2013,2,49.9,593.4,1816,360,3206,23.9
'2018-05-25 11:53:27.00',50.041,2017,0,49.8,591.8,2517,360,3206,23.9
'2018-05-25 11:53:28.00',50.037,2017,0,49.8,590.2,2517,360,3212,23.9
'2018-05-25 11:53:29.00',50.035,2014,-2,49.7,586.9,2871,360,3212,23.9
'2018-05-25 11:53:30.00',50.031,2016,1,49.7,586.9,3487,360,3212,23.9
'2018-05-25 11:53:31.00',50.028,2017,1,49.7,585.5,3487,360,3212,23.9
'2018-05-25 11:53:32.00',50.022,2016,0,49.6,585.5,3487,359,3212,23.9
'2018-05-25 11:53:33.00',50.023,2016,1,49.5,585.5,3491,359,3212,23.9
'2018-05-25 11:53:34.00',50.017,2015,2,49.3,585.0,3491,359,3212,23.9
'2018-05-25 11:53:34.99',50.020,2016,-1,49.2,585.0,3497,359,3213,23.9
'2018-05-25 11:53:36.00',50.019,2012,2,49.0,584.3,3498,359,3213,23.9
'2018-05-25 11:53:36.99',50.017,2011,2,49.0,584.3,3498,359,3213,23.9
'2018-05-25 11:53:38.00',50.017,2012,0,49.0,583.9,3498,359,3213,23.9
'2018-05-25 11:53:39.00',50.012,2013,3,49.0,583.6,3499,359,3213,23.9
'2018-05-25 11:53:40.00',50.007,2016,2,48.9,583.4,3502,359,3213,23.9
'2018-05-25 11:53:41.00',50.011,2012,3,48.9,582.8,3505,359,3213,23.9
'2018-05-25 11:53:42.00',50.014,2017,3,48.9,582.8,3511,359,3214,23.9
'2018-05-25 11:53:43.00',50.012,2014,3,48.9,582.3,3511,359,3214,23.9
'2018-05-25 11:53:44.00',50.013,2013,-5,48.8,582.3,3511,359,3214,23.9
'2018-05-25 11:53:45.00',50.013,2012,2,48.7,582.3,3513,359,3214,23.9
'2018-05-25 11:53:46.00',50.012,2014,2,48.7,582.1,3513,359,3214,23.9
'2018-05-25 11:53:47.00',50.014,2014,3,48.7,582.1,3518,359,3214,23.9
'2018-05-25 11:53:47.99',50.013,2012,-6,48.6,581.7,3520,359,3212,23.9
'2018-05-25 11:53:49.00',50.007,2012,3,48.6,581.7,3520,359,3212,23.9
'2018-05-25 11:53:49.99',50.003,2013,-5,48.4,581.5,3520,359,3212,23.9
'2018-05-25 11:53:51.00',50.000,2012,3,48.2,581.4,3524,359,3212,23.9
'2018-05-25 11:53:52.00',49.996,2013,3,48.1,581.2,3524,359,3212,23.9
'2018-05-25 11:53:53.00',49.993,2013,16,48.0,581.0,3524,359,3212,23.9
'2018-05-25 11:53:54.00',49.993,2015,1,48.0,580.9,3525,359,3212,23.9
'2018-05-25 11:53:55.00',49.988,2014,-1,48.0,580.5,3525,359,3209,23.9
'2018-05-25 11:53:56.00',49.984,2016,-1,47.9,580.5,3525,359,3209,23.9
'2018-05-25 11:53:57.00',49.981,2016,-1,47.9,580.5,3527,359,3209,23.9
'2018-05-25 11:53:58.00',49.978,2017,-1,47.9,580.5,3527,359,3209,23.9
'2018-05-25 11:53:59.00',49.977,2016,0,47.8,580.4,3528,359,3209,23.9
'2018-05-25 11:54:00.00',49.978,2016,-1,47.8,580.1,3528,359,3209,23.9
'2018-05-25 11:54:00.99',49.978,2016,-2,47.8,580.1,3529,359,3210,23.9
'2018-05-25 11:54:02.00',49.979,2018,-1,47.7,580.0,3529,359,3210,23.9
'2018-05-25 11:54:03.00',49.982,2018,-3,47.7,580.0,3530,359,3210,23.9
'2018-05-25 11:54:04.00',49.984,2015,-1,47.7,579.7,3531,359,3210,23.9
'2018-05-25 11:54:05.00',49.987,2016,-3,47.5,579.5,3532,359,3210,23.9
'2018-05-25 11:54:06.00',49.987,2014,-3,47.4,579.4,3535,359,3210,23.9
'2018-05-25 11:54:07.00',49.986,2015,0,47.4,579.3,3535,359,3210,23.9
'2018-05-25 11:54:08.00',49.985,2013,-1,47.1,579.2,3535,359,3210,23.9
'2018-05-25 11:54:09.00',49.985,2014,-1,47.0,579.2,3535,359,3210,23.9
'2018-05-25 11:54:10.00',49.985,2012,-3,47.0,579.2,3535,359,3210,23.9
'2018-05-25 11:54:11.00',49.985,2012,-3,47.0,579.0,3536,359,3210,23.9
'2018-05-25 11:54:12.00',49.985,2012,-2,47.0,578.8,3537,359,3210,23.9
'2018-05-25 11:54:13.00',49.986,2013,-3,46.9,578.8,3537,359,3210,23.9
'2018-05-25 11:54:13.99',49.986,2016,-4,46.9,578.6,3537,359,3209,23.9
'2018-05-25 11:54:15.00',49.986,2017,-3,46.8,578.6,3537,359,3209,23.9
'2018-05-25 11:54:15.99',49.986,2015,-2,46.8,578.5,3537,359,3209,23.9
'2018-05-25 11:54:17.00',49.987,2016,-3,46.8,578.3,3539,359,3209,23.9
'2018-05-25 11:54:18.00',49.988,2016,-3,46.7,578.1,3541,360,3209,23.9
'2018-05-25 11:54:19.00',49.989,2014,-1,46.7,578.0,3541,360,3209,23.9
'2018-05-25 11:54:20.00',49.990,2016,-3,46.7,577.9,3541,360,3208,23.9
'2018-05-25 11:54:21.00',49.990,2016,-1,46.6,577.9,3541,360,3208,23.9
'2018-05-25 11:54:22.00',49.993,2015,-2,46.5,577.9,3543,360,3208,23.9
'2018-05-25 11:54:23.00',49.994,2015,-3,46.3,577.8,3545,360,3208,23.9
'2018-05-25 11:54:24.00',49.996,2016,-1,46.1,577.7,3547,360,3208,23.9
'2018-05-25 11:54:25.00',49.997,2017,-3,46.1,577.5,3548,360,3208,23.9
'2018-05-25 11:54:26.00',49.998,2019,-2,46.0,577.4,3548,360,3205,23.9
'2018-05-25 11:54:26.99',49.999,2017,-2,46.0,577.4,3550,360,3205,23.9
'2018-05-25 11:54:28.00',50.002,2016,-2,46.0,577.3,3550,360,3205,23.9
'2018-05-25 11:54:29.00',50.003,2016,-1,45.9,577.1,3551,360,3205,23.9
'2018-05-25 11:54:30.00',50.005,2018,-1,45.9,576.9,3553,360,3205,23.9
'2018-05-25 11:54:31.00',50.006,2016,-1,45.9,576.9,3553,360,3205,23.9
'2018-05-25 11:54:32.00',50.012,2015,-1,45.8,576.7,3553,360,3205,23.9
'2018-05-25 11:54:33.00',50.013,2016,-3,45.8,576.7,3553,360,3207,23.9
'2018-05-25 11:54:34.00',50.015,2016,-5,45.7,576.7,3554,360,3207,23.9
'2018-05-25 11:54:35.00',50.014,2016,-1,45.7,576.6,3554,360,3207,23.9
'2018-05-25 11:54:36.00',50.016,2014,-3,45.7,576.6,3555,360,3207,23.9
'2018-05-25 11:54:37.00',50.017,2014,-2,45.6,576.4,3556,360,3207,23.9
'2018-05-25 11:54:38.00',50.018,2013,-4,45.4,576.3,3556,360,3207,23.9
'2018-05-25 11:54:39.00',50.019,2012,-1,45.4,576.3,3556,360,3207,23.9
'2018-05-25 11:54:39.99',50.021,2015,1,45.2,576.1,3558,360,3207,23.9
'2018-05-25 11:54:41.00',50.023,2014,1,45.1,575.9,3559,360,3207,23.9
'2018-05-25 11:54:41.99',50.024,2015,0,45.0,575.9,3559,360,3207,23.9
'2018-05-25 11:54:43.00',50.025,2017,-3,45.0,575.8,3560,360,3207,23.9
'2018-05-25 11:54:44.00',50.026,2017,-2,45.0,575.6,3560,360,3207,23.9
'2018-05-25 11:54:45.00',50.028,2017,0,45.0,575.6,3560,360,3207,23.9
'2018-05-25 11:54:46.00',50.028,2015,-2,44.9,575.6,3561,360,3207,23.9
'2018-05-25 11:54:47.00',50.028,2015,1,44.9,575.5,3561,360,3207,23.9
'2018-05-25 11:54:48.00',50.027,2018,-1,44.8,575.5,3561,360,3207,23.9
'2018-05-25 11:54:49.00',50.025,2016,-1,44.8,575.3,3561,360,3207,23.9
'2018-05-25 11:54:50.00',50.024,2019,-3,44.8,575.2,3562,360,3207,23.9
'2018-05-25 11:54:51.00',50.024,2018,-1,44.7,575.2,3562,360,3208,23.9
'2018-05-25 11:54:52.00',50.023,2014,0,44.7,575.0,3562,360,3208,23.9
'2018-05-25 11:54:52.99',50.024,2015,1,44.6,574.9,3564,360,3208,23.9
'2018-05-25 11:54:54.00',50.025,2016,-1,44.5,574.8,3564,360,3208,23.9
'2018-05-25 11:54:55.00',50.026,2015,-4,44.3,574.7,3564,360,3208,23.9
'2018-05-25 11:54:56.00',50.025,2016,-4,44.3,574.5,3564,360,3208,23.9
'2018-05-25 11:54:57.00',50.024,2014,-3,44.2,574.5,3564,360,3206,23.9
'2018-05-25 11:54:58.00',50.022,2013,2,44.1,574.5,3564,360,3206,23.9
'2018-05-25 11:54:59.00',50.018,2014,2,44.0,574.4,3564,360,3206,23.9
'2018-05-25 11:55:00.00',50.017,2012,1,44.0,574.4,3565,360,3206,23.9
'2018-05-25 11:55:01.00',50.016,2014,1,43.9,574.2,3566,360,3206,23.9
'2018-05-25 11:55:02.00',50.014,2014,2,43.9,574.1,3566,360,3206,23.9
'2018-05-25 11:55:03.00',50.013,2012,2,43.9,574.1,3566,360,3206,23.9
'2018-05-25 11:55:04.00',50.010,2011,-1,43.8,574.1,3569,360,3210,23.9
'2018-05-25 11:55:05.00',50.008,2011,2,43.8,573.9,3569,360,3210,23.9
'2018-05-25 11:55:05.99',50.005,2014,3,43.8,573.8,3569,360,3210,23.9
'2018-05-25 11:55:07.00',50.000,2011,2,43.7,573.7,3572,360,3210,23.9
'2018-05-25 11:55:08.00',49.996,2012,0,43.7,573.5,3572,359,3210,23.9
'2018-05-25 11:55:09.00',49.992,2010,2,43.7,573.5,3572,359,3210,23.9
'2018-05-25 11:55:10.00',49.990,2012,2,43.5,573.5,3573,359,3210,23.9
'2018-05-25 11:55:11.00',49.987,2012,2,43.3,573.4,3573,359,3211,23.9
'2018-05-25 11:55:12.00',49.987,2013,3,43.3,573.4,3575,359,3211,23.9
'2018-05-25 11:55:13.00',49.983,2015,2,43.2,573.2,3577,359,3211,23.9
'2018-05-25 11:55:14.00',49.984,2016,0,43.1,573.2,3577,359,3211,23.9
'2018-05-25 11:55:15.00',49.983,2016,1,43.0,573.1,3577,359,3211,23.9
'2018-05-25 11:55:16.00',49.982,2016,0,43.0,573.1,3577,359,3211,23.9
'2018-05-25 11:55:16.99',49.981,2016,1,42.9,572.9,3577,359,3211,23.9
'2018-05-25 11:55:18.00',49.979,2017,0,42.9,572.8,3577,359,3209,23.9
'2018-05-25 11:55:18.99',49.976,2016,2,42.9,572.7,3578,359,3209,23.9
'2018-05-25 11:55:20.00',49.973,2016,-1,42.8,572.5,3578,359,3209,23.9
'2018-05-25 11:55:21.00',49.962,2016,-1,42.8,572.5,3578,359,3209,23.9
'2018-05-25 11:55:22.00',49.961,2019,1,42.8,572.5,3578,359,3209,23.9
'2018-05-25 11:55:23.00',49.966,2017,-2,42.7,572.4,3578,359,3209,23.9
'2018-05-25 11:55:24.00',49.960,2015,-1,42.7,572.4,3578,359,3211,23.9
'2018-05-25 11:55:25.00',49.959,2012,-3,42.6,572.3,3577,359,3211,23.9
'2018-05-25 11:55:26.00',49.958,2014,-3,42.5,572.2,3577,359,3211,23.9
'2018-05-25 11:55:27.00',49.958,2014,-4,42.4,572.1,3577,359,3211,23.9
'2018-05-25 11:55:28.00',49.960,2014,-2,42.3,572.1,3579,359,3211,23.9
'2018-05-25 11:55:29.00',49.963,2017,-1,42.2,571.9,3580,359,3211,23.9
'2018-05-25 11:55:29.99',49.965,2016,-3,42.1,571.8,3580,359,3207,23.9
'2018-05-25 11:55:31.00',49.967,2016,-1,42.0,571.7,3581,359,3207,23.9
'2018-05-25 11:55:32.00',49.968,2019,0,41.9,571.5,3581,359,3207,23.9
'2018-05-25 11:55:33.00',49.968,2017,1,41.9,571.5,3581,359,3207,23.9
'2018-05-25 11:55:34.00',49.966,2014,0,41.9,571.5,3581,360,3207,23.9
'2018-05-25 11:55:35.00',49.964,2016,-3,41.9,571.5,3582,360,3207,23.9
'2018-05-25 11:55:36.00',49.961,2015,-3,41.8,571.4,3583,360,3207,23.9
'2018-05-25 11:55:37.00',49.957,2012,-5,41.8,571.3,3583,360,3209,23.9
'2018-05-25 11:55:38.00',49.953,2012,-1,41.8,571.2,3583,360,3209,23.9
'2018-05-25 11:55:39.00',49.953,2011,3,41.7,571.1,3583,360,3209,23.9
'2018-05-25 11:55:40.00',49.955,2013,3,41.7,571.1,3583,360,3209,23.9
'2018-05-25 11:55:41.00',49.960,2012,2,41.6,571.0,3583,360,3209,23.9
'2018-05-25 11:55:42.00',49.963,2012,3,41.5,571.0,3586,360,3209,23.9
'2018-05-25 11:55:42.99',49.965,2012,-1,41.4,570.8,3586,360,3208,23.9
'2018-05-25 11:55:44.00',49.968,2016,-1,41.3,570.6,3587,360,3208,23.9
'2018-05-25 11:55:44.99',49.969,2016,-1,41.3,570.6,3587,360,3208,23.9
'2018-05-25 11:55:46.00',49.970,2016,1,41.1,570.6,3587,360,3208,23.9
'2018-05-25 11:55:47.00',49.970,2016,0,41.0,570.6,3589,360,3208,23.9
'2018-05-25 11:55:48.00',49.968,2016,0,40.9,570.5,3589,359,3208,23.9
'2018-05-25 11:55:49.00',49.964,2016,-3,40.9,570.5,3591,359,3208,23.9
'2018-05-25 11:55:50.00',49.961,2016,-3,40.9,570.3,3591,359,3211,23.9
'2018-05-25 11:55:51.00',49.960,2015,-2,40.9,570.3,3593,359,3211,23.9
'2018-05-25 11:55:52.00',49.959,2011,-2,40.9,570.2,3593,359,3211,23.9
'2018-05-25 11:55:53.00',49.959,2011,-4,40.8,570.2,3593,359,3211,23.9
'2018-05-25 11:55:54.00',49.957,2013,-3,40.8,570.1,3594,359,3211,23.9
'2018-05-25 11:55:55.00',49.953,2012,-3,40.7,569.9,3597,359,3211,23.9
'2018-05-25 11:55:55.99',49.952,2017,-2,40.7,569.8,3598,359,3211,23.9
'2018-05-25 11:55:57.00',49.951,2014,-2,40.7,569.7,3598,359,3210,23.9
'2018-05-25 11:55:58.00',49.951,2018,1,40.5,569.7,3598,359,3210,23.8
'2018-05-25 11:55:59.00',49.953,2017,0,40.4,569.7,3598,359,3210,23.8